[[{"header":{"parameterUnit":"m.s-1","parameterCategory":1,"la1":30.2991,"la2":30.254,"lo1":-89.0895,"lo2":-89.0444,"dy":0.0017,"dx":0.0017,"nx":28,"ny":28,"refTime":"2025-04-29T21:00:00:Z","depth":0,"parameterNumber":2,"parameterNumberName":"U-component_of_WINDS"},"data":[0,0,0,0,0,0,0,0,0,0,0,0,0,0,0,0,0,0,0,0,0,0,0,0,0,0,0,0,0,0,0,0,0,0,0,0,0,0,0,0,0,0,0,0,0,0,0,0,0,0,0,0,0,0,0,0,0,0,-3.5935,-3.5935,0,-3.5978,-3.5979,-3.5979,-3.5951,-3.5949,-3.5948,-3.5947,-3.599,-3.5993,-3.5995,0,0,0,0,0,0,0,0,0,0,0,0,0,-3.5826,-3.5828,-3.5935,-3.5935,-3.5936,-3.5978,-3.5979,-3.598,-3.5951,-3.5949,-3.5948,-3.5946,-3.5989,-3.5992,-3.5995,0,0,0,0,0,0,0,0,0,0,0,0,0,-3.5872,-3.5829,-3.5935,-3.5927,-3.5926,-3.5978,-3.5979,-3.598,-3.5951,-3.5949,-3.5947,-3.5945,-3.5989,-3.5992,-3.5996,-3.6057,0,0,-3.6007,-3.6008,0,0,0,0,0,0,0,0,-3.5869,-3.5876,-3.5927,-3.5927,-3.5927,-3.5957,-3.5957,-3.6006,-3.5952,-3.5942,-3.5947,-3.5944,-3.5981,-3.5985,-3.5997,-3.6059,-3.6061,-3.6007,-3.6009,-3.6011,-3.6012,0,0,0,0,0,0,0,-3.5866,-3.5874,-3.5952,-3.5928,-3.5928,-3.5921,-3.5925,-3.5966,-3.5972,-3.5942,-3.594,-3.5946,-3.598,-3.5994,-3.5998,-3.6062,-3.6007,-3.601,-3.6012,-3.6014,-3.6178,-3.618,0,0,0,0,0,0,-3.5864,-3.5871,-3.5951,-3.5953,-3.5893,-3.5924,-3.5929,-3.5949,-3.5971,-3.5973,-3.5948,-3.5945,-3.5989,-3.5994,-3.6,-3.6074,-3.6011,-3.6014,-3.6016,-3.6176,-3.6179,-3.6181,0,0,0,0,0,0,-3.5861,-3.5871,-3.5949,-3.5912,-3.5921,-3.5928,-3.5951,-3.5951,-3.5965,-3.5975,-3.5976,-3.5961,-3.5987,-3.5995,-3.6044,-3.6075,-3.6016,-3.6019,-3.6173,-3.6177,-3.618,-3.6223,0,0,0,0,0,0,-3.5858,-3.587,-3.5894,-3.5913,-3.5923,-3.5992,-3.5953,-3.5954,-3.5971,-3.5968,-3.5988,-3.5989,-3.5986,-3.6038,-3.6047,-3.6079,-3.6022,-3.6171,-3.6175,-3.6179,-3.6218,-3.6227,-3.6234,0,0,0,0,0,-3.5855,-3.5904,-3.5895,-3.5905,-3.5953,-3.5994,-3.6,-3.5996,-3.5974,-3.5998,-3.6005,-3.5988,-3.607,-3.6044,-3.6053,-3.6086,-3.6169,-3.6174,-3.6179,-3.6215,-3.6225,-3.6234,0,0,0,0,0,0,-3.5888,-3.5906,-3.5897,-3.5953,-3.5972,-3.5989,-3.6019,-3.6008,-3.6033,-3.6028,-3.6023,-3.6028,-3.6079,-3.6088,-3.6058,-3.6148,-3.6116,-3.6123,-3.614,-3.615,-3.6158,-3.6155,-3.6025,0,0,0,0,0,-3.5902,-3.5934,-3.5948,-3.5997,-3.6007,-3.6011,-3.6029,-3.6025,-3.6044,-3.6052,-3.6062,-3.6082,-3.6112,-3.6132,-3.616,-3.622,-3.6224,-3.6248,-3.6256,-3.6262,-3.6268,-3.6301,-3.6312,-3.6197,-3.6197,-3.6197,0,0,-3.593,-3.5945,-3.5965,-3.6004,-3.6018,-3.6051,-3.6018,-3.6055,-3.6079,-3.6057,-3.6104,-3.6113,-3.6134,-3.6189,-3.6214,-3.6198,-3.6301,-3.6269,-3.6274,-3.6276,-3.6308,-3.6318,-3.6328,-3.6201,-3.62,-3.62,0,0,-3.6,-3.6014,-3.6056,-3.6072,-3.6094,-3.6097,-3.6108,-3.6127,-3.6132,-3.6179,-3.6164,-3.6193,-3.6245,-3.6261,-3.6276,-3.6354,-3.634,-3.6363,-3.6404,-3.6437,-3.6446,-3.6454,-3.6481,-3.6491,-3.6369,-3.6369,-3.6369,0,-3.6033,-3.6083,-3.6079,-3.6117,-3.6135,-3.6118,-3.6161,-3.6176,-3.6206,-3.6219,-3.6201,-3.6267,-3.628,-3.6339,-3.6358,-3.6371,-3.6382,-3.636,-3.6445,-3.6453,-3.646,-3.6486,-3.6497,-3.6372,-3.6372,-3.6371,-3.6371,0,-3.6122,-3.6157,-3.6189,-3.6219,-3.6241,-3.6281,-3.6284,-3.6306,-3.63,-3.6306,-3.6354,-3.637,-3.6401,-3.6415,-3.641,-3.6474,-3.6463,-3.6445,-3.6413,-3.6474,-3.6498,-3.6508,-3.6376,-3.6375,-3.6374,-3.6373,0,0,-3.6212,-3.6242,-3.6253,-3.6267,-3.6292,-3.6319,-3.6359,-3.639,-3.6409,-3.6432,-3.6465,-3.651,-3.6494,-3.6511,-3.6508,-3.6536,-3.6597,-3.6515,-3.6515,-3.6529,-3.6669,-3.6682,-3.6694,-3.6589,-3.6591,-3.6592,-3.6667,0,-3.6283,-3.6353,-3.6352,-3.6416,-3.6449,-3.6434,-3.6469,-3.6488,-3.6494,-3.6523,-3.653,-3.6562,-3.6538,-3.6549,-3.6576,-3.6584,-3.6625,-3.6579,-3.662,-3.6621,-3.6614,-3.6707,-3.672,-3.679,-3.6677,-3.6679,-3.668,0,-3.6374,-3.6401,-3.6469,-3.649,-3.6503,-3.6535,-3.6564,-3.6592,-3.6613,-3.6616,-3.6636,-3.6628,-3.6669,-3.6637,-3.6693,-3.6661,-3.6678,-3.6685,-3.6688,-3.669,-3.6653,-3.6712,-3.6812,-3.6823,-3.6695,-3.6694,-3.6693,0,-3.6433,-3.6485,-3.6533,-3.6546,-3.6571,-3.6594,-3.6605,-3.6625,-3.6644,-3.667,-3.6683,-3.6713,-3.6729,-3.6753,-3.6754,-3.673,-3.6811,-3.6778,-3.6814,-3.6814,-3.6831,-3.683,-3.6935,-3.6843,-3.6843,-3.6843,-3.6843,0,-3.6512,-3.6554,-3.656,-3.6589,-3.6636,-3.6635,-3.6682,-3.6692,-3.671,-3.6741,-3.673,-3.6759,-3.6759,-3.6789,-3.679,-3.6837,-3.6845,-3.6848,-3.6847,-3.6848,-3.6848,-3.6858,-3.6853,-3.6846,-3.6845,-3.6844,-3.6844,0,-3.6584,-3.659,-3.6641,-3.6662,-3.6668,-3.6702,-3.6719,-3.6748,-3.6754,-3.6793,-3.6802,-3.6812,-3.6847,-3.685,-3.6891,-3.6892,-3.6948,-3.6943,-3.6941,-3.694,-3.6975,-3.6972,-3.7091,-3.7106,-3.7005,-3.7006,-3.7007,0,-3.6634,-3.6666,-3.6691,-3.6711,-3.6724,-3.6757,-3.6777,-3.6778,-3.6799,-3.6827,-3.6852,-3.6886,-3.6913,-3.697,-3.698,-3.7011,-3.7006,-3.7046,-3.7011,-3.7011,-3.7007,-3.7004,-3.7008,-3.7052,-3.7053,-3.7054,-3.7055,0,-3.6721,-3.6723,-3.6752,-3.6784,-3.6808,-3.6832,-3.6855,-3.6872,-3.6876,-3.6901,-3.6937,-3.6958,-3.7,-3.7034,-3.7065,-3.7077,-3.7067,-3.7066,-3.7076,-3.7077,-3.7075,-3.7076,-3.6959,-3.7063,-3.7062,-3.7062,-3.7061,-3.7061,-3.6784,-3.6812,-3.6834,-3.6868,-3.6885,-3.6907,-3.6935,-3.6945,-3.6975,-3.701,-3.7008,-3.7048,-3.707,-3.7111,-3.7125,-3.7156,-3.7143,-3.7158,-3.7161,-3.7164,-3.7168,-3.7071,-3.7162,-3.7162,-3.7162,-3.7161,-3.7161,0,-3.687,-3.6884,-3.6915,-3.6948,-3.6974,-3.6964,-3.6989,-3.7012,-3.7047,-3.7068,-3.7096,-3.7138,-3.7171,-3.7185,-3.7218,-3.724,-3.7236,-3.7249,-3.7247,-3.725,-3.7178,-3.7166,-3.7251,-3.7251,-3.7251,-3.7251,-3.7251,-3.7251,-3.6918,-3.6966,-3.697,-3.7027,-3.704,-3.7079,-3.7095,-3.7115,-3.7132,-3.718,-3.7208,-3.7217,-3.7235,-3.727,-3.73,-3.7303,-3.7316,-3.733,-3.7331,-3.7264,-3.7255,-3.7246,-3.7235,-3.7333,-3.7333,-3.74,-3.7401,-3.7401]},{"header":{"parameterUnit":"m.s-1","parameterCategory":1,"la1":30.2991,"la2":30.254,"lo1":-89.0895,"lo2":-89.0444,"dy":0.0017,"dx":0.0017,"nx":28,"ny":28,"refTime":"2025-04-29T21:00:00:Z","depth":0,"parameterNumber":3,"parameterNumberName":"V-component_of_WINDS"},"data":[0,0,0,0,0,0,0,0,0,0,0,0,0,0,0,0,0,0,0,0,0,0,0,0,0,0,0,0,0,0,0,0,0,0,0,0,0,0,0,0,0,0,0,0,0,0,0,0,0,0,0,0,0,0,0,0,0,0,2.5085,2.5084,0,2.5055,2.5055,2.5054,2.5041,2.5042,2.5042,2.5042,2.5007,2.5006,2.5005,0,0,0,0,0,0,0,0,0,0,0,0,0,2.5127,2.5127,2.5085,2.5084,2.5084,2.5055,2.5055,2.5054,2.5041,2.5042,2.5042,2.5042,2.5008,2.5007,2.5005,0,0,0,0,0,0,0,0,0,0,0,0,0,2.5104,2.5127,2.5085,2.5074,2.5073,2.5055,2.5055,2.5054,2.5041,2.5042,2.5042,2.5042,2.5008,2.5007,2.5005,2.4995,0,0,2.5001,2.5,0,0,0,0,0,0,0,0,2.5106,2.5103,2.5076,2.5075,2.5073,2.5052,2.5057,2.5034,2.5041,2.5053,2.5042,2.5042,2.5022,2.5019,2.5013,2.4993,2.4992,2.5001,2.5,2.4999,2.4999,0,0,0,0,0,0,0,2.5107,2.5104,2.5073,2.5076,2.5074,2.507,2.5067,2.5053,2.5037,2.5052,2.5051,2.5048,2.5021,2.5015,2.5013,2.4991,2.5001,2.4999,2.4999,2.4998,2.4962,2.4962,0,0,0,0,0,0,2.5111,2.5105,2.5074,2.5072,2.509,2.5069,2.5066,2.5059,2.5038,2.5034,2.5048,2.5048,2.5017,2.5014,2.5011,2.4998,2.4999,2.4998,2.4997,2.4962,2.4962,2.4962,0,0,0,0,0,0,2.5112,2.5108,2.5075,2.5088,2.5084,2.5068,2.5061,2.5058,2.5052,2.5034,2.5031,2.5045,2.5017,2.5013,2.5,2.4997,2.4997,2.4996,2.4962,2.4962,2.4962,2.4972,0,0,0,0,0,0,2.5113,2.5109,2.5105,2.5089,2.5083,2.5064,2.5061,2.5058,2.505,2.5049,2.503,2.5027,2.5017,2.5002,2.4998,2.4995,2.4995,2.4962,2.4962,2.4962,2.4971,2.4972,2.4972,0,0,0,0,0,2.5115,2.5108,2.5105,2.5101,2.5078,2.5064,2.5061,2.505,2.505,2.5046,2.5035,2.5028,2.4998,2.5,2.4996,2.4992,2.4962,2.4962,2.4962,2.4971,2.4972,2.4972,0,0,0,0,0,0,2.5122,2.5105,2.5102,2.5089,2.5079,2.5062,2.5056,2.5051,2.5039,2.5039,2.5025,2.5021,2.5008,2.4999,2.5002,2.4982,2.498,2.4979,2.4988,2.4989,2.4989,2.4991,2.4994,0,0,0,0,0,2.5123,2.5114,2.5099,2.5089,2.5084,2.5072,2.5065,2.5058,2.5046,2.504,2.5028,2.5016,2.5004,2.4996,2.4983,2.4971,2.4966,2.4966,2.4967,2.4967,2.4966,2.4959,2.4959,2.4961,2.4961,2.4961,0,0,2.5123,2.5113,2.5107,2.5091,2.5081,2.5072,2.5067,2.5057,2.5049,2.5038,2.5025,2.5016,2.5001,2.4988,2.4982,2.498,2.4965,2.4967,2.4967,2.4966,2.4959,2.4959,2.4959,2.4961,2.4961,2.4961,0,0,2.5119,2.511,2.5102,2.5093,2.508,2.5072,2.507,2.5055,2.5049,2.5036,2.5028,2.5019,2.4998,2.4988,2.498,2.4975,2.4968,2.4971,2.4972,2.4966,2.4966,2.4966,2.4964,2.4963,2.497,2.497,2.497,0,2.512,2.5106,2.5097,2.5088,2.5081,2.5073,2.5064,2.5056,2.5039,2.5034,2.5033,2.5008,2.4997,2.4982,2.4982,2.4975,2.4973,2.4972,2.4967,2.4967,2.4966,2.4964,2.4964,2.4971,2.4971,2.4971,2.497,0,2.5109,2.5099,2.5094,2.508,2.5073,2.5063,2.5053,2.5046,2.5041,2.5033,2.502,2.5007,2.4993,2.4989,2.4983,2.4974,2.4973,2.497,2.4967,2.4967,2.4965,2.4964,2.4971,2.4971,2.4971,2.4971,0,0,2.5106,2.509,2.5088,2.5082,2.5068,2.506,2.5051,2.5039,2.5033,2.5023,2.5014,2.4998,2.4996,2.4987,2.498,2.4974,2.4972,2.4972,2.4971,2.4972,2.4961,2.4964,2.4963,2.4968,2.4968,2.4968,2.4963,0,2.51,2.5084,2.5077,2.5064,2.5056,2.5049,2.5041,2.5032,2.5024,2.5016,2.5007,2.4996,2.4994,2.4988,2.4983,2.4973,2.4969,2.4973,2.4959,2.4959,2.4963,2.4962,2.4964,2.4959,2.4962,2.4962,2.4961,0,2.5089,2.5081,2.5068,2.5057,2.5053,2.5046,2.5035,2.5027,2.5016,2.5011,2.5003,2.4996,2.4986,2.4986,2.4972,2.4975,2.4969,2.4963,2.4963,2.496,2.4959,2.4959,2.4958,2.4957,2.496,2.496,2.496,0,2.5089,2.5074,2.5064,2.506,2.5046,2.5042,2.5036,2.5025,2.5019,2.5009,2.5005,2.4994,2.4987,2.4979,2.4969,2.497,2.4956,2.4955,2.4952,2.4952,2.4948,2.4948,2.4945,2.4945,2.4945,2.4945,2.4945,0,2.5082,2.5074,2.5064,2.5058,2.505,2.5042,2.5033,2.5027,2.5018,2.501,2.5004,2.4997,2.4985,2.4977,2.4969,2.4959,2.4956,2.4951,2.4949,2.4952,2.4952,2.4947,2.4947,2.4945,2.4945,2.4945,2.4945,0,2.5079,2.5072,2.5062,2.5051,2.5048,2.5042,2.5033,2.5026,2.502,2.5011,2.5008,2.4997,2.4987,2.4978,2.4963,2.4958,2.4948,2.4946,2.4952,2.4951,2.4948,2.4948,2.4941,2.494,2.4941,2.4941,2.4941,0,2.5075,2.5069,2.5058,2.5054,2.5048,2.5041,2.5035,2.5027,2.5021,2.501,2.5005,2.4995,2.4986,2.497,2.4961,2.495,2.4947,2.4946,2.4945,2.4948,2.4947,2.4947,2.4947,2.4945,2.4945,2.4945,2.4945,0,2.5068,2.5065,2.5058,2.505,2.5044,2.5036,2.5029,2.5025,2.5016,2.501,2.5,2.4994,2.4981,2.497,2.4959,2.4952,2.4947,2.4946,2.4945,2.4946,2.495,2.4948,2.4952,2.4946,2.4946,2.4946,2.4946,2.4946,2.5064,2.5059,2.5051,2.5044,2.5038,2.5031,2.5026,2.502,2.5012,2.5001,2.4998,2.4988,2.4979,2.4963,2.4957,2.4949,2.4948,2.4946,2.4945,2.4944,2.4945,2.4953,2.4947,2.4947,2.4947,2.4947,2.4947,0,2.5057,2.5052,2.5045,2.5036,2.503,2.5028,2.502,2.5015,2.5007,2.4999,2.4992,2.4981,2.4972,2.4963,2.4953,2.4948,2.4946,2.4946,2.4946,2.4944,2.4947,2.4949,2.4948,2.4948,2.4948,2.4948,2.4948,2.4948,2.5052,2.5044,2.5041,2.503,2.5025,2.5017,2.5012,2.5007,2.5001,2.499,2.4983,2.4978,2.4969,2.4959,2.4951,2.4948,2.4945,2.4945,2.4942,2.4944,2.4944,2.4944,2.4946,2.4945,2.4945,2.4941,2.4941,2.4941]}]]